Location: Aula-Vintri
(58.3875°N, 22.4322°E)
Time: 15:49:41
(UTC+00:00)

Cosmos 1626 - Pass Details

Date: 13 October 2019
Orbit: 492 x 496 km, 82.5° (Epoch: 17 November)

Event Time Altitude Azimuth Distance (km) Brightness Sun altitude
Rises 16:32:47 0° 343° (NNW) 2,601 6.0 -8.8°
Reaches altitude 10° 16:34:57 10° 339° (NNW) 1,713 5.1 -9.1°
Maximum altitude 16:38:35 51° 264° (W) 640 3.2 -9.6°
Drops below altitude 10° 16:42:11 10° 188° (S) 1,698 4.9 -10.0°
Sets 16:44:19 0° 183° (S) 2,576 5.8 -10.3°
